This demonstration page uses our WeatherBlox Daily Observations layout. Learn more.

Hourly Observations for March 25, 2016

Temp ( °F °C ) Dew Point ( °F °C ) Humidity (%) Winds ( mph kmh ) Pressure ( in mb ) Visibility ( mi km ) Precip ( " mm )
12:15 am 00:15 Clear 70 21 50 10 50 50 SSW 20 31 29.74 1007 10 16.09344 0 0
12:35 am 00:35 Partly Cloudy 70 21 52 11 53 53 SSW 16 26 29.74 1007 10 16.09344 0 0
12:55 am 00:55 Partly Cloudy 68 20 52 11 56 56 SSW 21 33 29.71 1006 10 16.09344 0 0
1:15 am 01:15 Partly Cloudy 68 20 52 11 56 56 S 18 30 29.71 1006 10 16.09344 0 0
1:35 am 01:35 Clear 68 20 54 12 60 60 SSW 20 31 29.71 1006 10 16.09344 0 0
1:55 am 01:55 Mostly Cloudy 68 20 54 12 60 60 SSW 15 24 29.71 1006 10 16.09344 0 0
2:15 am 02:15 Cloudy 68 20 55 13 64 64 S 17 28 29.71 1006 10 16.09344 0 0
2:35 am 02:35 Partly Cloudy 68 20 55 13 64 64 S 18 30 29.71 1006 10 16.09344 0 0
2:55 am 02:55 Clear 68 20 57 14 69 69 S 23 37 29.68 1005 10 16.09344 0 0
3:15 am 03:15 Clear 68 20 57 14 69 69 S 18 30 29.68 1005 10 16.09344 0 0
3:35 am 03:35 Clear 68 20 59 15 73 73 S 17 28 29.68 1005 10 16.09344 0 0
3:55 am 03:55 Clear 68 20 59 15 73 73 SSW 18 30 29.68 1005 10 16.09344 0 0
4:15 am 04:15 Clear 66 19 59 15 78 78 SSW 18 30 29.68 1005 10 16.09344 0 0
4:35 am 04:35 Partly Cloudy 66 19 59 15 78 78 SSW 20 31 29.68 1005 10 16.09344 0 0
4:55 am 04:55 Mostly Cloudy 66 19 59 15 78 78 S 15 24 29.68 1005 10 16.09344 0 0
5:15 am 05:15 Partly Cloudy 66 19 59 15 78 78 S 18 30 29.68 1005 10 16.09344 0 0
5:35 am 05:35 Partly Cloudy 66 19 59 15 78 78 SSW 15 24 29.68 1005 10 16.09344 0 0
5:55 am 05:55 Clear 64 18 59 15 83 83 SSW 14 22 29.68 1005 10 16.09344 0 0
6:15 am 06:15 Partly Cloudy 64 18 61 16 88 88 SSW 16 26 29.68 1005 10 16.09344 0 0
6:35 am 06:35 Mostly Cloudy 64 18 61 16 88 88 SSW 16 26 29.68 1005 10 16.09344 0 0
6:55 am 06:55 Partly Cloudy 64 18 61 16 88 88 SSW 13 20 29.71 1006 10 16.09344 0 0
7:15 am 07:15 Partly Cloudy 64 18 61 16 88 88 SSW 12 19 29.71 1006 10 16.09344 0 0
7:35 am 07:35 Mostly Cloudy 64 18 61 16 88 88 SSW 7 11 29.71 1006 10 16.09344 0 0
7:55 am 07:55 Cloudy with Light Rain 64 18 61 16 88 88 SSW 14 22 29.71 1006 10 16.09344 0 0
8:15 am 08:15 Cloudy 64 18 61 16 88 88 SSW 10 17 29.71 1006 10 16.09344 0 0
8:35 am 08:35 Cloudy with Heavy Rain 64 18 61 16 88 88 WNW 10 17 29.74 1007 5 8.04672 0.02 0.508
8:55 am 08:55 Cloudy with Rain 63 17 63 17 100 100 W 5 7 29.74 1007 5 8.04672 0.06 1.524
9:15 am 09:15 Cloudy with Light Drizzle 63 17 63 17 100 100 Calm 29.74 1007 10 16.09344 0 0
9:35 am 09:35 Cloudy 63 17 63 17 100 100 WSW 3 6 29.77 1008 10 16.09344 0 0
9:55 am 09:55 Cloudy 63 17 63 17 100 100 WNW 7 11 29.77 1008 10 16.09344 0 0
10:15 am 10:15 Cloudy with Light Rain 63 17 61 16 94 94 NW 8 13 29.77 1008 10 16.09344 0 0
10:35 am 10:35 Cloudy with Light Rain 64 18 59 15 83 83 WNW 13 20 29.8 1009 10 16.09344 0 0
10:55 am 10:55 Cloudy 63 17 54 12 73 73 WNW 20 31 29.8 1009 10 16.09344 0 0
11:15 am 11:15 Cloudy 63 17 54 12 73 73 WNW 16 26 29.8 1009 10 16.09344 0 0
11:35 am 11:35 Cloudy 63 17 52 11 68 68 NW 14 22 29.8 1009 10 16.09344 0 0
11:55 am 11:55 Cloudy 64 18 54 12 68 68 NW 15 24 29.8 1009 10 16.09344 0 0
12:15 pm 12:15 Cloudy 64 18 54 12 68 68 WNW 14 22 29.8 1009 10 16.09344 0 0
12:35 pm 12:35 Cloudy 66 19 54 12 64 64 NW 10 17 29.8 1009 10 16.09344 0 0
12:55 pm 12:55 Cloudy 68 20 52 11 56 56 NW 8 13 29.8 1009 10 16.09344 0 0
1:15 pm 13:15 Mostly Cloudy 70 21 54 12 57 57 WNW 17 28 29.8 1009 10 16.09344 0 0
1:35 pm 13:35 Sunny 70 21 52 11 53 53 WNW 18 30 29.8 1009 10 16.09344 0 0
1:55 pm 13:55 Partly Cloudy 70 21 50 10 50 50 WNW 13 20 29.83 1010 10 16.09344 0 0
2:15 pm 14:15 Mostly Cloudy 66 19 46 8 49 49 N 15 24 29.83 1010 10 16.09344 0 0
2:35 pm 14:35 Cloudy 66 19 46 8 49 49 NNW 17 28 29.83 1010 10 16.09344 0 0
2:55 pm 14:55 Cloudy 66 19 46 8 49 49 NNW 15 24 29.83 1010 10 16.09344 0 0
3:15 pm 15:15 Cloudy 64 18 45 7 49 49 NNW 20 31 29.83 1010 10 16.09344 0 0
3:35 pm 15:35 Cloudy 64 18 45 7 49 49 NW 18 30 29.83 1010 10 16.09344 0 0
3:55 pm 15:55 Mostly Cloudy 66 19 45 7 46 46 NW 17 28 29.85 1011 10 16.09344 0 0
4:15 pm 16:15 Partly Cloudy 68 20 46 8 46 46 NNW 18 30 29.85 1011 10 16.09344 0 0
4:35 pm 16:35 Partly Cloudy 64 18 45 7 49 49 NNW 16 26 29.85 1011 10 16.09344 0 0
4:55 pm 16:55 Mostly Cloudy 64 18 45 7 49 49 NNW 22 35 29.88 1012 10 16.09344 0 0
5:15 pm 17:15 Partly Cloudy 63 17 45 7 52 52 NNW 14 22 29.88 1012 10 16.09344 0 0
5:35 pm 17:35 Sunny 63 17 45 7 52 52 NNW 16 26 29.88 1012 10 16.09344 0 0
5:55 pm 17:55 Sunny 63 17 43 6 49 49 NW 21 33 29.91 1013 10 16.09344 0 0
6:15 pm 18:15 Sunny 63 17 43 6 49 49 NNW 16 26 29.91 1013 10 16.09344 0 0
6:35 pm 18:35 Sunny 61 16 43 6 52 52 N 16 26 29.94 1014 10 16.09344 0 0
6:55 pm 18:55 Sunny 59 15 43 6 55 55 N 15 24 29.94 1014 10 16.09344 0 0
7:15 pm 19:15 Sunny 59 15 43 6 55 55 N 14 22 29.97 1015 10 16.09344 0 0
7:35 pm 19:35 Clear 55 13 43 6 63 63 N 15 24 29.97 1015 10 16.09344 0 0
7:55 pm 19:55 Clear 55 13 43 6 63 63 N 12 19 30 1016 10 16.09344 0 0
8:15 pm 20:15 Clear 54 12 43 6 67 67 NNW 15 24 30 1016 10 16.09344 0 0
8:55 pm 20:55 Clear 52 11 41 5 67 67 NNW 13 20 30.03 1017 10 16.09344 0 0
9:15 pm 21:15 Clear 52 11 41 5 67 67 NNW 18 30 30.03 1017 10 16.09344 0 0
9:35 pm 21:35 Clear 52 11 41 5 67 67 N 13 20 30.06 1018 10 16.09344 0 0
9:55 pm 21:55 Clear 50 10 39 4 67 67 N 10 17 30.09 1019 10 16.09344 0 0
10:15 pm 22:15 Clear 50 10 39 4 67 67 N 12 19 30.09 1019 10 16.09344 0 0
10:35 pm 22:35 Clear 50 10 39 4 67 67 N 12 19 30.12 1020 10 16.09344 0 0
10:55 pm 22:55 Clear 50 10 37 3 62 62 N 8 13 30.12 1020 10 16.09344 0 0
11:15 pm 23:15 Clear 50 10 37 3 62 62 N 12 19 30.12 1020 10 16.09344 0 0
11:35 pm 23:35 Clear 48 9 37 3 66 66 N 9 15 30.12 1020 10 16.09344 0 0
11:55 pm 23:55 Clear 48 9 37 3 66 66 N 9 15 30.15 1021 10 16.09344 0 0

Powered by AerisWeather